Change the Weather History Date:

Tuesday, February 5, 2013

  Actual Average (KCHO) Record (KCHO)
Temperature  
Mean Temperature 45 °F 36 °F  
Max Temperature 57 °F 46 °F 75 °F (2008)
Min Temperature 33 °F 27 °F 0 °F (1917)
Degree Days  
Heating Degree Days 20 28  
Month to date heating degree days 144  
Since 1 July heating degree days 2804  
Cooling Degree Days 0 0  
Month to date cooling degree days 0  
Year to date cooling degree days 0  
Moisture  
Dew Point 28 °F    
Average Humidity 53    
Maximum Humidity 75    
Minimum Humidity 36    
Precipitation  
Precipitation 0.00 in 0.08 in 1.60 in (2010)
Month to date precipitation 0.38  
Year to date precipitation 3.15  
Sea Level Pressure  
Sea Level Pressure 29.86 in    
Wind  
Wind Speed 3 mph (WSW)    
Max Wind Speed 15 mph    
Max Gust Speed 21 mph    
Visibility 10 miles    
Events      
T = Trace of Precipitation, MM = Missing Value Source: NWS Daily Summary

Daily Weather History Graph

Daily Weather History Graph

Search for Another Location

Airport or City:

Trip Planner

Search our weather history database for the weather conditions in past years. The results will help you decide how hot, cold, wet, or windy it might be!

Date:

Astronomy

Feb. 05, 2013 Rise Set
Actual Time 7:12 AM EST 5:39 PM EST
Civil Twilight 6:44 AM EST 6:07 PM EST
Nautical Twilight 6:13 AM EST 6:38 PM EST
Astronomical Twilight 5:42 AM EST 7:09 PM EST
Moon 2:50 AM EST (2/5) 12:57 PM EST (2/5)
Length of Visible Light 11h 22m
Length of Day
10h 27m
Waning Crescent, 27% of the Moon is Illuminated
Feb 5
Waning Crescent
Feb 10
New
Feb 17
First Quarter
Feb 25
Full
Mar 4
Last Quarter

Hourly Weather History & Observations

Time (EST) Temp. Windchill Dew Point Humidity Pressure Visibility Wind Dir Wind Speed Gust Speed Precip Events Conditions
12:15 AM 35.6 °F - 19.4 °F 52% 29.89 in 10.0 mi Calm Calm - N/A   Overcast
12:35 AM 35.6 °F 32.8 °F 21.2 °F 56% 29.88 in 10.0 mi SSW 3.5 mph - N/A   Scattered Clouds
12:55 AM 33.8 °F - 19.4 °F 56% 29.88 in 10.0 mi Calm Calm - N/A   Clear
1:15 AM 33.8 °F - 21.2 °F 60% 29.88 in 10.0 mi Calm Calm - N/A   Clear
1:35 AM 33.8 °F 30.8 °F 21.2 °F 60% 29.87 in 10.0 mi SSW 3.5 mph - N/A   Mostly Cloudy
1:55 AM 35.6 °F 32.8 °F 21.2 °F 56% 29.87 in 10.0 mi SSW 3.5 mph - N/A   Scattered Clouds
2:15 AM 35.6 °F 32.8 °F 21.2 °F 56% 29.87 in 10.0 mi SSW 3.5 mph - N/A   Scattered Clouds
2:35 AM 35.6 °F - 23.0 °F 60% 29.87 in 10.0 mi Calm Calm - N/A   Mostly Cloudy
2:55 AM 35.6 °F 32.8 °F 23.0 °F 60% 29.86 in 10.0 mi SSW 3.5 mph - N/A   Overcast
3:15 AM 35.6 °F 32.8 °F 24.8 °F 65% 29.86 in 10.0 mi SW 3.5 mph - N/A   Mostly Cloudy
3:35 AM 35.6 °F - 24.8 °F 65% 29.86 in 10.0 mi Calm Calm - N/A   Overcast
3:55 AM 35.6 °F - 24.8 °F 65% 29.85 in 10.0 mi Calm Calm - N/A   Mostly Cloudy
4:15 AM 33.8 °F - 24.8 °F 70% 29.84 in 10.0 mi Calm Calm - N/A   Scattered Clouds
4:35 AM 35.6 °F - 24.8 °F 65% 29.85 in 10.0 mi Calm Calm - N/A   Overcast
4:55 AM 35.6 °F - 24.8 °F 65% 29.85 in 10.0 mi Calm Calm - N/A   Overcast
5:15 AM 35.6 °F - 24.8 °F 65% 29.85 in 10.0 mi Calm Calm - N/A   Overcast
5:35 AM 37.4 °F - 24.8 °F 60% 29.86 in 10.0 mi Calm Calm - N/A   Overcast
5:55 AM 35.6 °F 32.8 °F 24.8 °F 65% 29.86 in 10.0 mi SSW 3.5 mph - N/A   Mostly Cloudy
6:15 AM 37.4 °F 33.8 °F 26.6 °F 65% 29.86 in 10.0 mi SSW 4.6 mph - N/A   Mostly Cloudy
6:35 AM 37.4 °F - 26.6 °F 65% 29.85 in 10.0 mi Calm Calm - N/A   Mostly Cloudy
6:55 AM 37.4 °F - 26.6 °F 65% 29.86 in 10.0 mi Calm Calm - N/A   Mostly Cloudy
7:15 AM 37.4 °F 34.9 °F 26.6 °F 65% 29.87 in 10.0 mi SW 3.5 mph - N/A   Clear
7:35 AM 37.4 °F - 26.6 °F 65% 29.87 in 10.0 mi Calm Calm - N/A   Scattered Clouds
7:55 AM 37.4 °F - 26.6 °F 65% 29.88 in 10.0 mi Calm Calm - N/A   Scattered Clouds
8:15 AM 37.4 °F 33.8 °F 26.6 °F 65% 29.88 in 10.0 mi SSW 4.6 mph - N/A   Clear
8:35 AM 39.2 °F 35.9 °F 26.6 °F 61% 29.89 in 10.0 mi SW 4.6 mph - N/A   Clear
9:15 AM 42.8 °F 39.3 °F 26.6 °F 53% 29.89 in 10.0 mi SW 5.8 mph - N/A   Clear
9:35 AM 42.8 °F 39.3 °F 26.6 °F 53% 29.89 in 10.0 mi SW 5.8 mph - N/A   Clear
9:55 AM 44.6 °F 39.7 °F 26.6 °F 49% 29.89 in 10.0 mi SW 9.2 mph - N/A   Clear
10:15 AM 44.6 °F 40.7 °F 26.6 °F 49% 29.88 in 10.0 mi SW 6.9 mph - N/A   Clear
10:35 AM 44.6 °F 40.7 °F 28.4 °F 53% 29.88 in 10.0 mi SW 6.9 mph - N/A   Clear
10:55 AM 44.6 °F 41.4 °F 28.4 °F 53% 29.89 in 10.0 mi SW 5.8 mph - N/A   Clear
11:15 AM 46.4 °F 42.9 °F 28.4 °F 50% 29.89 in 10.0 mi SW 6.9 mph - N/A   Clear
11:35 AM 48.2 °F - 28.4 °F 46% 29.88 in 10.0 mi SW 4.6 mph - N/A   Clear
11:55 AM 48.2 °F - 28.4 °F 46% 29.88 in 10.0 mi SW 6.9 mph - N/A   Scattered Clouds
12:15 PM 51.8 °F - 28.4 °F 41% 29.86 in 10.0 mi WSW 8.1 mph - N/A   Scattered Clouds
12:35 PM 51.8 °F - 28.4 °F 41% 29.85 in 10.0 mi WSW 4.6 mph - N/A   Clear
12:55 PM 53.6 °F - 30.2 °F 41% 29.83 in 10.0 mi WSW 5.8 mph - N/A   Clear
1:15 PM 53.6 °F - 30.2 °F 41% 29.82 in 10.0 mi WSW 8.1 mph - N/A   Clear
1:35 PM 55.4 °F - 30.2 °F 38% 29.82 in 10.0 mi SW 9.2 mph - N/A   Clear
1:55 PM 55.4 °F - 30.2 °F 38% 29.81 in 10.0 mi West 11.5 mph 20.7 mph N/A   Clear
2:15 PM 57.2 °F - 32.0 °F 38% 29.81 in 10.0 mi SW 9.2 mph 16.1 mph N/A   Clear
2:35 PM 55.4 °F - 30.2 °F 38% 29.80 in 10.0 mi WSW 8.1 mph 16.1 mph N/A   Scattered Clouds
2:55 PM 57.2 °F - 30.2 °F 36% 29.80 in 10.0 mi WSW 8.1 mph - N/A   Scattered Clouds
3:15 PM 55.4 °F - 32.0 °F 41% 29.81 in 10.0 mi West 9.2 mph - N/A   Overcast
3:35 PM 55.4 °F - 32.0 °F 41% 29.81 in 10.0 mi West 6.9 mph - N/A   Mostly Cloudy
3:55 PM 55.4 °F - 30.2 °F 38% 29.81 in 10.0 mi West 12.7 mph 19.6 mph N/A   Scattered Clouds
4:15 PM 55.4 °F - 30.2 °F 38% 29.82 in 10.0 mi West 9.2 mph 17.3 mph N/A   Clear
4:35 PM 55.4 °F - 28.4 °F 36% 29.83 in 10.0 mi West 15.0 mph 20.7 mph N/A   Clear
4:55 PM 53.6 °F - 28.4 °F 38% 29.83 in 10.0 mi West 12.7 mph 18.4 mph N/A   Clear
5:15 PM 53.6 °F - 30.2 °F 41% 29.83 in 10.0 mi West 6.9 mph - N/A   Clear
5:35 PM 53.6 °F - 30.2 °F 41% 29.83 in 10.0 mi West 8.1 mph - N/A   Clear
5:55 PM 51.8 °F - 30.2 °F 44% 29.84 in 10.0 mi West 6.9 mph - N/A   Clear
6:15 PM 51.8 °F - 30.2 °F 44% 29.84 in 10.0 mi West 5.8 mph - N/A   Clear
6:35 PM 51.8 °F - 30.2 °F 44% 29.84 in 10.0 mi West 5.8 mph - N/A   Clear
6:55 PM 50.0 °F - 28.4 °F 43% 29.85 in 10.0 mi West 4.6 mph - N/A   Clear
7:15 PM 50.0 °F - 30.2 °F 47% 29.86 in 10.0 mi WSW 4.6 mph - N/A   Clear
7:35 PM 50.0 °F - 30.2 °F 47% 29.86 in 10.0 mi WSW 3.5 mph - N/A   Clear
7:55 PM 48.2 °F - 30.2 °F 50% 29.87 in 10.0 mi Calm Calm - N/A   Clear
8:15 PM 48.2 °F - 30.2 °F 50% 29.87 in 10.0 mi West 4.6 mph - N/A   Clear
8:35 PM 48.2 °F - 30.2 °F 50% 29.87 in 10.0 mi West 6.9 mph - N/A   Clear
8:55 PM 48.2 °F - 30.2 °F 50% 29.87 in 10.0 mi WSW 6.9 mph - N/A   Clear
9:15 PM 48.2 °F - 30.2 °F 50% 29.87 in 10.0 mi WSW 4.6 mph - N/A   Clear
9:35 PM 46.4 °F 45.2 °F 30.2 °F 53% 29.88 in 10.0 mi WSW 3.5 mph - N/A   Clear
9:55 PM 42.8 °F - 30.2 °F 61% 29.89 in 10.0 mi Calm Calm - N/A   Clear
10:15 PM 42.8 °F - 30.2 °F 61% 29.89 in 10.0 mi Calm Calm - N/A   Clear
10:35 PM 39.2 °F - 30.2 °F 70% 29.89 in 10.0 mi Calm Calm - N/A   Clear
10:55 PM 39.2 °F - 30.2 °F 70% 29.90 in 10.0 mi Calm Calm - N/A   Clear
11:15 PM 37.4 °F - 30.2 °F 75% 29.90 in 10.0 mi Calm Calm - N/A   Clear
11:35 PM 42.8 °F 41.1 °F 30.2 °F 61% 29.89 in 10.0 mi SW 3.5 mph - N/A   Clear
11:55 PM 42.8 °F - 30.2 °F 61% 29.90 in 10.0 mi Calm Calm - N/A   Clear